Temp
75 78 82 83 83 83 83 83 83 83 83 83 83 83 83 83 83 83 83 83 83 83 83 83 83 83 83 83 83 84 84 84 84 84 84 84 84 83 83 84 83 83 82
77 79 83 83 83 83 83 83 83 83 83 83 83 83 83 83 83 83 83 83 83 83 83 83 83 83 83 83 83 83 84 83 83 83 83 84 83 82 81 83 84 82 82
78 80 82 83 83 83 83 83 83 83 84 83 83 84 84 84 83 83 83 83 84 84 84 84 83 83 83 83 83 83 83 82 83 83 81 74 78 83 83 82 83 83 83
79 78 80 82 83 83 83 83 84 84 83 83 83 84 84 84 84 84 84 84 84 84 84 84 84 83 83 83 83 83 83 82 82 82 74 76 81 83 83 83 83 83 82
78 78 81 82 83 83 83 83 83 83 84 83 83 83 84 84 84 84 84 84 84 83 84 84 84 84 83 83 83 83 83 83 83 79 74 72 72 82 83 83 83 83 83
77 77 82 83 83 84 83 83 84 84 83 83 83 84 84 84 84 84 84 84 84 84 83 84 83 83 83 82 82 83 83 83 79 76 74 74 74 83 83 83 83 83 83
77 79 82 83 83 84 84 84 84 84 83 83 84 84 84 84 84 84 84 84 83 84 84 83 83 84 83 82 81 83 82 81 78 75 74 74 74 82 83 83 83 83 82
79 80 82 83 83 84 84 84 84 84 83 83 84 84 84 84 84 84 84 84 84 84 84 84 84 83 83 83 81 82 82 81 78 75 76 75 76 81 83 83 82 82 82
80 79 80 81 82 84 84 84 84 83 83 83 83 84 83 84 83 84 84 84 84 84 84 84 83 83 83 83 83 81 81 81 75 73 76 74 77 82 83 83 83 82 82
79 79 77 77 78 77 79 84 84 84 84 84 84 84 84 84 84 84 83 84 85 85 84 84 83 83 83 83 83 82 82 80 75 74 74 74 77 83 84 83 83 83 82
78 76 76 76 76 76 78 81 83 84 84 84 83 84 82 76 78 81 82 83 85 85 84 84 84 83 83 83 83 82 79 74 74 73 72 76 79 83 84 83 82 82 82
75 75 75 76 76 76 83 78 76 79 78 77 78 77 76 75 75 80 81 84 85 84 85 85 84 84 83 78 74 81 73 73 74 72 71 77 80 81 83 83 82 82 82
77 78 77 78 78 78 81 77 75 75 75 75 76 76 75 76 76 78 76 80 76 80 76 78 78 77 76 74 73 72 72 73 75 74 74 77 80 82 83 83 82 82 82
78 79 80 79 80 80 77 77 77 74 75 74 75 76 74 74 75 74 74 74 74 74 74 75 73 75 74 75 74 73 73 72 73 76 74 78 80 81 83 81 83 82 82
80 81 81 81 81 81 76 75 77 77 77 77 77 77 75 73 73 73 74 74 73 73 73 72 73 73 73 74 74 73 73 73 73 73 74 80 80 81 81 82 81 82 81
83 83 83 82 83 78 76 76 78 78 77 76 77 78 76 73 73 73 74 75 77 75 73 74 73 75 72 73 74 74 73 75 75 74 72 74 81 81 81 82 82 81 81
84 82 82 80 81 79 78 78 77 77 79 77 78 79 78 76 75 74 74 74 74 76 76 76 76 76 74 74 76 75 76 73 75 74 73 73 77 81 81 81 81 81 82
84 81 82 87 81 78 78 78 79 78 77 77 78 80 80 75 76 76 76 75 75 78 76 74 74 76 76 74 74 73 73 74 76 75 75 74 75 73 77 80 81 80 82
84 82 81 81 80 78 78 78 78 80 79 79 76 78 77 77 78 76 76 75 76 74 77 76 73 72 74 76 76 72 72 72 74 75 74 74 73 72 72 77 79 79 80
83 83 81 81 78 78 77 76 77 77 76 78 75 75 77 75 78 76 76 76 75 75 74 73 72 72 73 74 75 74 72 72 72 73 74 76 72 72 72 72 73 74 79
83 81 80 77 76 77 74 74 74 75 75 74 75 78 76 76 78 77 76 76 76 74 73 72 71 72 72 76 71 69 70 71 71 72 72 74 73 74 73 72 72 72 74
81 81 77 79 76 78 78 75 76 76 76 76 74 74 75 77 77 77 75 74 74 73 72 70 70 69 69 71 72 69 65 68 71 72 71 73 71 73 73 73 72 71 69
81 79 78 78 78 78 78 76 75 76 77 76 74 74 75 78 78 78 76 74 74 72 70 70 71 70 68 68 71 71 63 63 65 70 71 71 72 70 71 71 72 70 69
83 83 79 78 79 78 77 76 75 74 73 72 71 71 73 78 77 78 77 74 73 72 71 71 72 69 68 66 68 72 73 72 65 64 72 70 72 71 69 70 69 69 67
85 83 81 79 79 80 80 78 76 73 74 69 68 69 72 75 78 77 77 75 73 72 71 71 69 68 67 66 65 66 67 68 67 64 60 64 67 67 67 67 66 65 66
84 83 82 79 79 79 79 77 75 74 72 68 68 68 71 73 74 76 76 74 73 72 72 71 69 67 65 65 65 65 65 66 65 64 62 62 68 68 65 65 64 64 63
MSLP
1015.53 1015.33 1015.15 1015.15 1014.98 1014.97 1015.03 1015.30 1015.48 1015.95 1015.79 1015.97 1016.06 1016.25 1016.47 1016.79 1016.86 1016.79 1017.05 1017.19 1017.46 1017.36 1017.41 1018.00 1018.08 1018.03 1018.01 1017.99 1018.05 1018.09 1018.23 1018.15 1018.27 1018.39 1018.63 1018.72 1018.89 1018.91 1018.98 1019.14 1019.32 1019.51 1019.69
1015.37 1015.51 1015.45 1015.16 1015.35 1015.25 1015.23 1015.46 1015.86 1016.09 1016.04 1016.19 1016.33 1016.56 1016.71 1016.93 1016.94 1016.92 1017.05 1017.20 1017.46 1017.58 1017.47 1017.79 1018.01 1018.11 1018.17 1018.31 1018.42 1018.33 1018.29 1018.36 1018.69 1018.61 1018.61 1018.66 1019.01 1019.49 1019.34 1019.07 1019.26 1019.49 1019.84
1015.38 1015.53 1015.74 1015.77 1015.70 1015.77 1015.73 1015.92 1016.11 1016.36 1016.45 1016.37 1016.47 1016.61 1016.71 1016.89 1017.13 1017.19 1017.27 1017.44 1017.36 1017.65 1017.67 1017.64 1017.88 1018.06 1018.13 1018.34 1018.57 1018.59 1018.60 1018.76 1018.99 1019.11 1019.19 1019.16 1019.19 1019.41 1019.59 1019.28 1019.45 1019.50 1019.59
1015.27 1015.63 1015.75 1015.93 1016.05 1016.15 1016.11 1016.15 1016.43 1016.47 1016.67 1016.52 1016.69 1016.81 1016.76 1016.75 1017.06 1017.35 1017.44 1017.73 1017.81 1017.71 1017.74 1017.63 1017.85 1018.15 1018.10 1018.25 1018.53 1018.68 1019.02 1019.01 1019.21 1019.29 1019.54 1019.51 1019.01 1019.09 1019.46 1019.79 1019.77 1019.76 1019.91
1015.52 1015.64 1015.77 1015.96 1016.23 1016.27 1016.42 1016.45 1016.56 1016.75 1016.77 1016.72 1016.83 1016.93 1016.75 1016.90 1017.21 1017.28 1017.53 1017.78 1018.03 1017.95 1017.87 1017.80 1017.88 1018.07 1018.27 1018.42 1018.66 1018.79 1019.03 1018.87 1019.14 1019.43 1019.60 1019.65 1019.57 1019.27 1019.39 1019.75 1020.00 1020.05 1020.08
1015.48 1015.68 1015.83 1016.10 1016.31 1016.39 1016.54 1016.70 1016.51 1016.89 1017.01 1016.97 1016.95 1017.05 1016.98 1017.01 1017.23 1017.38 1017.65 1017.85 1018.03 1018.03 1018.00 1018.02 1018.04 1018.04 1018.15 1018.35 1018.72 1018.86 1018.94 1018.89 1019.00 1019.15 1019.43 1019.71 1019.64 1019.45 1019.63 1019.89 1020.19 1020.46 1020.48
1015.64 1015.82 1015.91 1016.20 1016.39 1016.39 1016.53 1016.79 1016.75 1016.91 1017.02 1017.12 1017.17 1017.10 1017.30 1017.18 1017.23 1017.63 1017.80 1018.02 1017.95 1017.98 1017.99 1018.25 1018.39 1018.35 1018.33 1018.39 1018.83 1019.20 1019.19 1019.13 1018.92 1019.26 1019.57 1019.95 1019.92 1019.69 1019.74 1019.85 1020.36 1020.55 1020.66
1015.29 1015.71 1016.13 1016.17 1016.49 1016.40 1016.50 1016.93 1016.88 1017.07 1017.19 1017.03 1017.17 1017.25 1017.37 1017.37 1017.51 1017.73 1017.71 1017.92 1018.09 1018.27 1018.16 1018.30 1018.35 1018.38 1018.52 1018.63 1018.84 1019.39 1019.51 1019.42 1019.36 1019.16 1019.36 1019.71 1020.03 1019.85 1019.88 1019.97 1020.33 1020.68 1020.73
1015.31 1015.53 1015.87 1016.27 1016.54 1016.43 1016.64 1016.92 1016.99 1016.96 1017.11 1017.27 1017.32 1017.41 1017.47 1017.57 1017.61 1017.95 1017.85 1017.95 1018.13 1018.38 1018.39 1018.35 1018.37 1018.41 1018.49 1018.65 1018.84 1019.23 1019.65 1019.60 1019.55 1019.68 1019.66 1019.57 1019.93 1019.93 1019.88 1020.10 1020.34 1020.59 1020.71
1015.64 1015.73 1015.99 1016.23 1016.46 1016.49 1016.64 1016.81 1016.93 1016.96 1017.12 1017.29 1017.52 1017.47 1017.47 1017.55 1017.73 1017.93 1017.97 1017.88 1018.07 1018.29 1018.25 1018.39 1018.41 1018.48 1018.45 1018.65 1018.83 1019.13 1019.42 1019.65 1019.68 1019.90 1020.05 1020.10 1020.10 1019.94 1019.92 1020.15 1020.39 1020.56 1020.72
1015.91 1016.06 1015.91 1016.05 1016.32 1016.41 1016.51 1016.66 1016.81 1016.89 1017.16 1017.33 1017.51 1017.33 1017.38 1017.71 1017.88 1017.72 1017.91 1017.78 1018.08 1018.28 1018.22 1018.41 1018.58 1018.39 1018.66 1018.70 1018.83 1019.02 1019.27 1019.59 1019.66 1020.05 1020.03 1019.95 1020.01 1019.95 1020.05 1020.25 1020.39 1020.67 1020.81
1015.65 1015.83 1015.94 1015.94 1016.06 1016.16 1016.26 1016.62 1016.87 1016.93 1017.11 1017.27 1017.35 1017.42 1017.56 1017.74 1017.99 1017.83 1017.99 1017.86 1017.87 1017.97 1018.14 1018.24 1018.27 1018.29 1018.61 1018.81 1019.12 1018.94 1019.30 1019.34 1019.41 1019.68 1019.92 1019.77 1019.83 1019.91 1019.95 1020.07 1020.21 1020.58 1020.81
1014.87 1015.36 1015.58 1015.71 1015.77 1015.88 1016.06 1016.52 1016.88 1017.05 1017.16 1017.24 1017.37 1017.39 1017.49 1017.68 1017.94 1017.91 1018.05 1018.00 1018.05 1017.88 1018.18 1018.25 1018.31 1018.18 1018.42 1018.73 1019.10 1019.30 1019.20 1019.25 1019.13 1019.32 1019.38 1019.48 1019.50 1019.58 1019.72 1019.98 1020.22 1020.47 1020.66
1014.76 1014.83 1015.23 1015.34 1015.54 1015.81 1016.12 1016.39 1016.71 1017.05 1017.21 1017.40 1017.47 1017.43 1017.58 1017.67 1017.72 1018.04 1018.07 1018.13 1018.18 1018.21 1018.28 1018.23 1018.35 1018.12 1018.35 1018.33 1018.59 1019.01 1019.14 1019.18 1019.05 1019.03 1019.26 1019.12 1019.27 1019.66 1019.71 1019.95 1020.29 1020.46 1020.52
1014.22 1014.45 1014.94 1015.35 1015.46 1015.49 1016.09 1016.37 1016.53 1016.81 1016.97 1016.89 1017.03 1017.24 1017.44 1017.49 1017.76 1018.06 1017.84 1017.85 1018.00 1018.12 1017.98 1018.22 1018.17 1018.12 1018.13 1018.03 1018.07 1018.17 1018.75 1018.82 1018.82 1018.78 1018.84 1018.81 1019.18 1019.60 1019.71 1019.80 1020.23 1020.35 1020.53
1013.64 1014.02 1014.60 1015.05 1015.04 1015.52 1016.11 1016.14 1016.19 1016.42 1016.48 1016.55 1016.76 1016.77 1017.13 1017.58 1017.48 1017.51 1017.55 1017.44 1017.35 1017.67 1017.80 1017.68 1017.99 1017.81 1017.98 1017.83 1017.64 1017.70 1018.16 1018.34 1018.31 1018.39 1018.50 1018.83 1018.85 1019.16 1019.45 1019.83 1020.13 1020.28 1020.44
1013.09 1013.63 1014.40 1014.72 1014.81 1015.42 1015.81 1015.54 1015.95 1016.23 1016.28 1016.49 1016.78 1016.76 1017.06 1017.30 1017.23 1017.44 1017.33 1017.34 1017.53 1017.44 1017.51 1017.61 1017.57 1017.68 1017.71 1017.62 1017.73 1017.60 1017.73 1018.20 1018.18 1018.08 1018.23 1018.65 1018.80 1019.05 1019.49 1019.76 1019.97 1020.21 1020.29
1012.86 1013.55 1014.12 1014.40 1014.89 1015.43 1015.49 1015.35 1015.75 1016.07 1016.36 1016.65 1017.04 1016.86 1016.90 1017.26 1017.35 1017.12 1017.24 1017.31 1017.35 1017.24 1017.28 1017.47 1017.61 1017.71 1017.63 1017.56 1017.66 1017.61 1017.74 1017.69 1017.70 1017.84 1018.13 1018.47 1018.79 1019.15 1019.59 1019.74 1019.81 1020.05 1020.05
1012.63 1013.32 1013.97 1014.40 1014.81 1015.04 1015.23 1015.39 1015.89 1016.00 1015.94 1016.26 1016.35 1016.89 1016.83 1016.97 1016.80 1017.11 1017.14 1017.27 1017.44 1017.47 1017.32 1017.51 1017.73 1017.90 1017.85 1017.70 1017.81 1017.84 1018.01 1018.11 1017.95 1017.87 1018.10 1018.36 1018.85 1019.19 1019.63 1019.68 1019.68 1019.87 1019.95
1012.69 1013.11 1013.59 1014.23 1014.75 1014.99 1015.27 1015.54 1015.73 1015.99 1015.85 1015.90 1016.21 1016.39 1016.33 1016.64 1016.61 1017.11 1017.05 1017.11 1017.31 1017.60 1017.78 1017.85 1017.90 1017.80 1017.79 1018.04 1018.13 1018.36 1018.57 1018.41 1018.21 1018.39 1018.46 1018.57 1018.97 1019.04 1019.40 1019.63 1019.67 1019.83 1019.64
1012.81 1013.21 1013.62 1014.27 1014.69 1014.99 1015.60 1015.98 1016.18 1016.39 1016.29 1016.24 1016.13 1015.73 1016.08 1016.24 1016.24 1016.65 1016.82 1016.89 1017.09 1017.63 1017.89 1017.91 1018.07 1017.98 1018.18 1018.21 1018.42 1018.92 1019.04 1019.00 1019.04 1018.89 1018.76 1018.87 1019.12 1019.29 1019.46 1019.47 1019.71 1019.97 1019.92
1012.41 1013.08 1013.67 1014.01 1014.57 1014.83 1015.18 1015.43 1015.75 1015.87 1015.88 1015.65 1015.73 1015.85 1016.17 1016.32 1016.32 1016.68 1016.78 1017.11 1017.22 1017.71 1017.97 1017.97 1018.00 1018.33 1018.42 1018.38 1018.69 1019.17 1019.69 1019.70 1019.57 1019.54 1019.37 1019.51 1019.74 1019.64 1019.72 1019.84 1020.05 1020.41 1020.59
1012.21 1012.68 1013.27 1013.79 1014.28 1014.55 1014.85 1015.32 1015.71 1015.83 1016.01 1016.02 1016.21 1016.38 1016.37 1016.24 1016.40 1016.53 1016.50 1016.89 1017.30 1017.68 1018.08 1018.11 1018.12 1018.37 1018.73 1018.67 1018.47 1018.65 1019.63 1019.88 1020.02 1020.09 1020.03 1019.90 1019.92 1020.11 1020.17 1020.31 1020.44 1020.71 1020.87
1011.61 1012.24 1012.79 1013.44 1013.89 1014.15 1014.59 1015.06 1015.50 1015.82 1016.31 1016.33 1016.31 1016.48 1016.43 1016.21 1016.25 1016.31 1016.49 1016.89 1017.26 1017.60 1018.11 1018.22 1018.35 1018.39 1018.63 1018.97 1018.67 1018.44 1018.35 1018.64 1019.60 1020.62 1020.43 1020.53 1020.51 1020.57 1020.70 1020.63 1020.77 1020.97 1021.09
1011.10 1011.77 1012.29 1012.90 1013.49 1013.72 1014.27 1014.58 1015.14 1015.69 1015.82 1016.09 1016.29 1016.36 1016.33 1015.99 1016.07 1016.33 1016.51 1016.91 1017.25 1017.49 1018.05 1018.22 1018.43 1018.60 1018.64 1018.97 1019.03 1018.99 1018.86 1018.97 1019.31 1020.26 1021.05 1021.19 1021.19 1021.35 1021.21 1021.11 1021.17 1021.27 1021.29
1010.58 1011.39 1011.97 1012.53 1012.89 1013.35 1013.76 1014.20 1014.59 1015.16 1015.59 1016.11 1016.46 1016.63 1016.43 1016.29 1016.33 1016.47 1016.63 1016.85 1016.99 1017.45 1017.85 1018.12 1018.48 1018.66 1018.93 1019.02 1019.12 1019.00 1019.02 1019.16 1019.49 1019.89 1020.82 1021.43 1021.69 1022.07 1021.97 1021.78 1021.63 1021.70 1021.69
Wind_Speed
3 6 14 15 17 18 19 19 19 17 18 17 18 18 18 17 17 17 16 15 13 13 12 10 10 10 10 10 11 11 12 14 14 14 15 15 13 12 14 15 14 9 12
6 7 13 15 17 18 18 18 17 16 17 17 17 16 16 15 16 16 15 14 12 11 10 9 8 9 8 9 10 9 10 12 13 12 12 15 15 10 12 15 15 8 12
7 7 10 14 16 16 16 16 16 16 16 16 16 16 15 14 13 13 13 12 11 9 8 7 6 6 6 8 9 9 8 12 11 10 10 4 4 13 8 13 16 13 10
9 6 9 14 14 14 15 15 14 16 14 16 15 14 14 14 12 11 11 10 9 8 7 6 6 6 5 5 6 7 7 7 9 6 4 1 6 12 12 11 13 13 13
9 6 11 15 13 14 13 14 14 13 12 13 14 13 13 13 12 11 9 8 9 8 6 7 6 7 7 7 6 6 5 4 7 7 3 2 3 10 13 12 10 11 12
10 8 14 15 14 13 12 13 14 12 11 11 12 12 12 12 11 10 9 8 9 8 8 9 8 7 7 6 7 7 6 6 4 4 4 1 1 9 12 12 11 11 11
10 7 10 15 14 13 12 11 12 11 11 11 10 11 10 11 12 11 10 8 8 8 9 8 8 7 6 7 8 10 10 5 3 4 5 2 4 9 14 15 13 11 10
14 10 10 13 12 12 11 10 11 10 9 10 10 9 9 10 10 8 10 9 8 7 7 7 6 5 6 4 3 10 13 6 5 3 2 2 7 11 12 13 14 13 11
12 11 9 8 11 13 11 10 10 10 9 8 9 9 9 7 7 8 9 8 7 7 7 6 7 6 4 4 3 5 15 13 7 3 2 2 6 10 13 13 14 14 13
10 9 8 7 6 6 6 11 10 10 9 7 8 8 8 8 7 7 6 8 8 7 7 8 8 7 6 5 4 3 10 16 8 8 4 3 8 11 12 13 13 14 14
9 8 8 8 7 6 6 7 10 11 10 9 8 8 7 2 4 6 7 7 7 8 8 7 6 7 7 6 4 4 7 3 5 4 3 8 9 12 13 14 14 13 13
13 11 9 8 9 7 7 5 5 5 4 5 5 4 3 3 4 5 7 9 10 10 9 8 9 9 5 2 2 4 3 4 4 3 3 9 12 11 16 15 14 15 14
16 12 12 10 8 8 6 4 3 2 3 3 5 5 5 3 3 3 2 3 2 7 0 4 4 4 3 3 2 3 4 4 3 3 4 10 13 14 16 16 14 14 15
15 14 12 11 10 10 4 5 4 3 3 3 4 5 3 3 2 3 2 3 3 3 3 4 3 5 4 5 5 4 5 5 4 3 6 14 14 13 14 14 15 15 15
15 14 13 12 11 9 6 4 4 5 5 6 4 5 4 3 3 3 4 3 4 3 5 3 4 4 5 5 5 6 6 9 8 4 3 16 14 16 14 12 15 15 14
14 13 11 13 12 7 6 7 5 4 5 5 4 6 6 4 4 3 3 3 4 4 4 4 5 5 5 4 5 6 5 7 8 6 3 5 17 15 16 15 13 11 11
14 12 14 11 9 8 7 6 4 4 4 4 2 3 5 4 3 4 2 2 1 3 2 3 4 3 3 4 7 5 5 6 6 7 6 5 4 15 14 14 11 11 11
13 13 10 10 8 8 6 5 3 2 2 0 1 1 5 6 5 3 2 1 1 0 3 2 3 1 0 4 1 2 3 4 2 3 3 3 3 4 3 8 9 8 8
15 14 10 9 8 8 4 4 5 4 4 5 6 2 1 2 3 3 1 2 2 2 3 2 2 2 1 4 4 3 3 3 4 4 5 5 4 4 3 7 9 5 8
14 14 11 8 8 7 4 2 0 3 2 4 6 5 4 3 3 4 1 2 3 2 2 1 3 1 2 3 4 4 3 2 1 3 2 0 3 4 4 4 3 3 6
13 13 13 10 7 6 3 3 1 2 3 3 4 7 6 5 5 5 3 3 2 3 2 1 1 4 3 1 4 3 4 4 4 4 3 2 2 3 3 2 1 1 2
14 12 10 12 10 8 5 3 3 3 3 3 3 3 3 4 5 4 4 4 5 4 3 3 3 2 1 1 3 3 3 4 3 3 2 4 5 4 4 5 7 6 5
14 12 12 12 13 9 7 3 2 2 3 3 1 2 4 5 5 5 6 5 5 4 3 3 3 4 1 1 1 4 2 3 2 2 2 4 4 3 3 4 7 6 5
16 13 12 12 14 10 9 5 5 4 4 3 3 2 3 6 6 5 6 6 6 4 4 3 2 2 3 2 2 3 2 5 4 2 3 2 2 4 4 4 5 5 5
17 15 12 13 13 12 12 9 7 4 3 3 2 4 4 3 4 5 6 6 6 4 5 5 4 5 2 2 2 1 3 3 4 4 3 1 4 4 3 4 4 4 4
14 14 13 13 14 12 13 10 9 9 7 5 3 3 3 1 3 4 5 5 6 5 5 5 4 5 4 4 1 2 2 3 2 3 4 2 6 3 3 3 4 3 2
Wind_Direction
206 134 119 110 110 104 102 102 99 98 99 101 101 107 110 117 120 119 125 131 132 124 123 117 114 111 110 104 104 109 113 118 127 128 126 128 140 156 136 131 134 137 130
150 130 117 115 112 106 107 103 103 104 104 104 102 107 114 123 127 129 134 140 143 136 133 127 128 123 118 111 111 104 103 115 115 114 112 128 138 136 132 134 139 133 125
138 128 122 115 110 111 105 107 110 110 110 108 108 114 117 122 124 135 140 150 153 155 148 141 137 128 125 129 124 130 132 130 109 103 105 109 137 132 142 121 132 130 112
140 126 129 118 118 117 114 111 113 114 115 114 115 117 121 119 130 135 139 154 156 157 162 163 162 140 152 153 140 145 136 130 136 96 90 6 127 134 130 127 130 128 131
137 131 134 132 133 128 120 113 113 112 120 121 122 125 120 124 134 131 136 143 146 147 168 161 172 162 172 169 170 139 137 143 85 78 77 31 349 138 134 129 126 139 140
144 143 141 142 144 136 131 125 120 119 127 125 124 120 121 130 130 133 138 143 141 143 148 153 163 184 167 167 137 144 124 108 79 123 114 59 312 149 141 140 149 157 155
142 152 144 153 154 144 138 134 128 132 132 129 124 119 125 132 134 136 136 148 136 150 145 150 161 169 162 168 150 123 119 141 179 8 44 338 290 180 155 152 157 161 159
149 157 164 153 154 148 142 153 138 136 132 134 133 132 132 133 134 142 145 150 150 162 152 154 164 169 164 156 144 125 135 142 134 115 5 289 253 171 156 153 152 158 157
150 150 151 155 164 156 159 165 151 139 143 144 140 141 143 141 151 163 155 154 163 171 158 170 171 179 197 169 178 137 136 131 120 145 126 229 277 182 162 159 159 159 160
155 157 156 156 167 158 174 173 164 154 159 154 161 156 152 162 172 187 174 168 182 179 179 182 194 191 200 209 186 154 143 150 142 161 204 217 246 202 175 172 170 170 167
161 171 168 168 173 171 181 186 175 170 168 177 185 174 177 168 212 203 201 189 204 198 202 200 208 215 198 234 209 183 132 156 187 170 184 219 207 204 189 184 176 176 173
172 183 182 176 183 180 183 186 183 178 170 187 194 196 182 192 222 215 228 209 220 214 207 208 213 237 224 196 236 208 156 183 202 187 193 224 207 207 196 189 182 179 180
180 179 184 182 190 185 190 168 176 173 197 203 193 200 208 198 224 218 220 231 240 250 191 239 223 226 241 215 220 176 175 199 198 193 232 231 214 209 200 188 192 190 182
178 185 183 182 187 199 160 170 175 170 202 214 206 224 211 215 178 201 239 229 199 250 243 224 228 222 220 230 209 211 176 198 229 210 206 222 211 208 212 195 193 194 190
178 185 180 181 190 191 157 173 182 186 196 215 194 201 193 204 192 151 249 221 197 212 229 212 219 240 225 247 214 218 171 197 221 209 195 208 201 193 205 198 199 195 194
183 178 164 180 188 154 160 187 195 177 203 204 207 187 189 196 175 188 208 223 220 186 211 231 211 215 222 231 248 227 196 196 214 210 196 212 204 200 200 195 203 199 192
167 150 159 165 167 151 179 163 144 180 199 190 231 227 168 217 212 184 142 206 273 213 268 239 216 189 240 233 244 235 221 182 205 210 183 207 208 201 202 211 212 216 198
149 148 150 152 157 160 166 124 126 170 191 158 35 166 188 184 180 136 165 281 21 251 235 217 260 331 200 213 149 115 47 106 254 223 176 161 167 127 213 241 204 215 216
156 155 161 150 161 157 158 141 155 165 186 166 188 226 181 226 153 151 183 125 95 23 49 55 58 146 68 46 69 97 103 116 127 144 166 159 151 141 179 253 215 237 232
162 163 155 158 165 158 149 133 103 66 93 137 153 171 215 199 186 184 159 151 116 138 62 56 70 6 73 102 108 73 64 89 82 132 135 102 147 162 195 214 206 241 245
161 157 163 153 172 144 138 152 132 163 216 229 253 162 224 183 177 178 156 132 114 121 129 119 110 47 44 32 83 26 51 50 12 30 84 121 123 172 182 204 129 56 24
169 163 156 167 164 167 167 175 158 185 205 190 175 189 316 226 176 180 120 95 134 123 104 71 74 83 358 350 131 103 49 356 27 27 82 94 93 89 92 89 95 73 72
169 169 165 172 172 174 175 147 74 59 47 28 84 257 232 189 175 163 131 121 131 110 121 97 80 99 73 323 67 143 119 178 119 355 33 125 139 114 102 111 108 101 95
179 172 162 167 174 176 170 177 161 169 162 202 194 167 265 206 172 172 137 123 131 126 125 119 89 100 112 42 338 14 20 131 145 84 24 34 72 110 116 124 112 103 91
174 175 172 169 174 177 181 184 171 177 198 140 180 203 221 158 161 157 148 142 133 123 132 123 106 81 68 99 96 356 39 66 79 125 135 9 49 14 37 112 110 116 105
176 172 176 173 182 183 183 186 177 181 185 169 176 200 191 163 131 145 152 142 135 137 138 123 112 102 108 100 80 86 140 145 165 134 113 148 134 39 33 49 101 114 123